Weather Roundup
Issued by NWS Chicago, IL

Home | Current Version | Previous Version | Text Only | Print | Product List | Glossary On
Versions: 1 2 3 4 5 6 7 8 9 10 11 12 13 14 15 16 17 18 19 20 21 22 23 24 25 26 27 28 29 30 31 32 33 34 35 36 37 38 39 40 41 42 43 44 45 46 47 48 49 50
000
NZUS59 KLOT 221808
HRRLOT

CHICAGO AREA WEATHER ROUNDUP
NATIONAL WEATHER SERVICE CHICAGO/ROMEOVILLE IL
100 PM CDT TUE AUG 22 2017

NOTE: "FAIR" INDICATES FEW OR NO CLOUDS BELOW 12,000 FEET WITH NO
SIGNIFICANT WEATHER AND/OR OBSTRUCTIONS TO VISIBILITY.

* THESE STATIONS ARE NOT UNDER NWS QUALITY CONTROL. THEY ALSO MAY NOT
  REPORT WEATHER SUCH AS PRECIPITATION OR FOG.

ILZ005-006-012>014-019>023-221900-
NORTHEAST ILLINOIS

CITY           SKY/WX    TMP DP  RH WIND       PRES   REMARKS
OHARE          PTSUNNY   78  60  53 NW17      29.89S
6HR MIN TEMP:  71; 6HR MAX TEMP:  79;

MIDWAY         PTSUNNY   76  61  59 NW16G29   29.90R
6HR MIN TEMP:  71; 6HR MAX TEMP:  76;

AURORA         PTSUNNY   75  66  73 W14G22    29.93S
6HR MIN TEMP:  69; 6HR MAX TEMP:  75;

LANSING*       CLOUDY    75  62  63 W14G20    29.91R
JOLIET*        CLOUDY    75  65  70 W8G20     29.93R
WAUKEGAN       PTSUNNY   77  59  53 NW10G23   29.87S
6HR MIN TEMP:  70; 6HR MAX TEMP:  77;

DUPAGE AIRPORT MOSUNNY   76  65  68 W15       29.90F
6HR MIN TEMP:  69; 6HR MAX TEMP:  76;

WHEELING       PTSUNNY   78  61  55 NW14G21   29.90S HX  80
6HR MIN TEMP:  71; 6HR MAX TEMP:  79;

MORRIS*        CLOUDY    73  64  73 NW13      29.93R
LEWIS AIRPORT* CLOUDY    74  63  68 W15G21    29.92S
NORTHERLY ISL    N/A     75  59  57 W15         N/A
$$

WIZ051-052-058>065-066-070>072-221900-
SOUTHEAST WISCONSIN

CITY           SKY/WX    TMP DP  RH WIND       PRES   REMARKS
MILWAUKEE      PTSUNNY   78  54  43 NW21G33   29.87R
6HR MIN TEMP:  71; 6HR MAX TEMP:  80;

KENOSHA*       MOSUNNY   78  56  46 NW14G26   29.88S
RACINE*        MOSUNNY   78  57  48 NW16G25   29.89R
WAUKESHA       MOSUNNY   72  55  56 W17       29.91R
WEST BEND      MOSUNNY   72  52  49 NW15G23   29.89R
$$

INZ001>003-010>013-019-020-221900-
NORTHWEST INDIANA

CITY           SKY/WX    TMP DP  RH WIND       PRES   REMARKS
GARY*          PTSUNNY   77  63  61 W14G26    29.90R
MICHIGAN CITY* NOT AVBL
RENSSELAER*    NOT AVBL
VALPARAISO     CLOUDY    75  66  73 W14       29.91R
$$

LMZ740>746-221900-
SOUTHERN LAKE MICHIGAN

STATION/POSITION TIME  SKY/WX   TEMP WIND        PRES    VSBY
                                AIR  DIR/SP/G
                 (UTC)          (F)  (DEG/KT/KT) (MB)    (MI)
HARRISON CRIB    1740            74  280/ 18/ 20   N/A
BURNHAM HARBOR   NOT AVBL
CALUMET HARBOR   1748            75  270/  5/ 11 1011.8R
BURNS HARBOR     1740            74  280/ 14/ 17 1012.5R
MICHIGAN CITY    1740            72  300/ 17/ 18   N/A
$$

ABBREVIATIONS USED IN REMARKS
   TC - TEMPERATURE IN CELSIUS
  WCI - WIND CHILL INDEX
   HX - HEAT INDEX
  VSB - VISIBILITY
$$



USA.gov is the U.S. government's official web portal to all federal, state and local government web resources and services.